Time,TemperatureF,DewpointF,PressureIn,WindDirection,WindDirectionDegrees,WindSpeedMPH,WindSpeedGustMPH,Humidity,HourlyPrecipIn,Conditions,Clouds,dailyrainin,SoftwareType,DateUTC
2013-06-28 00:10:00,62.4,60.7,29.76,WNW,294,0.0,1.0,94,0.00,,,0.00,VWS V12.07,2013-06-28 04:10:00,
2013-06-28 00:28:00,62.1,60.7,29.76,WNW,294,0.0,0.0,95,0.00,,,0.00,VWS V12.07,2013-06-28 04:28:00,
2013-06-28 00:40:00,61.6,60.2,29.76,WNW,294,2.0,3.0,95,0.00,,,0.00,VWS V12.07,2013-06-28 04:40:00,
2013-06-28 00:58:00,61.6,60.2,29.76,WNW,294,0.0,4.0,95,0.00,,,0.00,VWS V12.07,2013-06-28 04:58:00,
2013-06-28 01:10:00,61.3,60.2,29.76,WNW,294,0.0,0.0,96,0.00,,,0.00,VWS V12.07,2013-06-28 05:10:00,
2013-06-28 01:28:00,61.2,60.0,29.75,WNW,294,0.0,0.0,96,0.00,,,0.00,VWS V12.07,2013-06-28 05:28:00,
2013-06-28 01:40:00,60.9,59.8,29.74,WNW,294,0.0,0.0,96,0.00,,,0.00,VWS V12.07,2013-06-28 05:40:00,
2013-06-28 01:58:00,60.5,59.4,29.73,WNW,294,0.0,0.0,96,0.00,,,0.00,VWS V12.07,2013-06-28 05:58:00,
2013-06-28 02:10:00,60.5,59.7,29.73,WNW,294,0.0,0.0,97,0.00,,,0.00,VWS V12.07,2013-06-28 06:10:00,
2013-06-28 02:28:00,60.4,59.5,29.72,WNW,294,0.0,0.0,97,0.00,,,0.00,VWS V12.07,2013-06-28 06:28:00,
2013-06-28 02:40:00,61.8,61.2,29.71,WNW,288,0.0,9.0,98,0.00,,,0.00,VWS V12.07,2013-06-28 06:40:00,
2013-06-28 02:58:00,62.3,61.7,29.71,NNW,334,2.0,9.0,98,0.00,,,0.00,VWS V12.07,2013-06-28 06:58:00,
2013-06-28 03:10:00,63.4,62.0,29.70,NW,323,6.0,10.0,95,0.00,,,0.00,VWS V12.07,2013-06-28 07:10:00,
2013-06-28 03:28:00,63.9,61.5,29.69,NW,315,1.0,9.0,92,0.00,,,0.00,VWS V12.07,2013-06-28 07:28:00,
2013-06-28 03:40:00,64.7,61.1,29.69,WNW,292,3.0,9.0,88,0.00,,,0.00,VWS V12.07,2013-06-28 07:40:00,
2013-06-28 03:58:00,64.3,60.7,29.70,WNW,292,0.0,5.0,88,0.00,,,0.00,VWS V12.07,2013-06-28 07:58:00,
2013-06-28 04:10:00,63.4,60.4,29.70,WNW,293,0.0,2.0,90,0.00,,,0.00,VWS V12.07,2013-06-28 08:10:00,
2013-06-28 04:28:00,62.6,60.2,29.70,WNW,293,0.0,1.0,92,0.00,,,0.00,VWS V12.07,2013-06-28 08:28:00,
2013-06-28 04:40:00,62.1,60.4,29.71,WNW,293,0.0,2.0,94,0.00,,,0.00,VWS V12.07,2013-06-28 08:40:00,
2013-06-28 04:58:00,62.3,60.6,29.71,WNW,293,1.0,4.0,94,0.00,,,0.00,VWS V12.07,2013-06-28 08:58:00,
2013-06-28 05:10:00,62.0,60.6,29.70,WNW,293,0.0,0.0,95,0.00,,,0.00,VWS V12.07,2013-06-28 09:10:00,
2013-06-28 05:28:00,61.6,60.2,29.71,WNW,293,0.0,0.0,95,0.00,,,0.00,VWS V12.07,2013-06-28 09:28:00,
2013-06-28 05:40:00,61.3,59.9,29.71,WNW,293,0.0,0.0,95,0.00,,,0.00,VWS V12.07,2013-06-28 09:40:00,
2013-06-28 05:58:00,61.2,59.8,29.71,WNW,293,0.0,0.0,95,0.00,,,0.00,VWS V12.07,2013-06-28 09:58:00,
2013-06-28 06:10:00,60.5,59.1,29.72,WNW,293,0.0,0.0,95,0.00,,,0.00,VWS V12.07,2013-06-28 10:10:00,
2013-06-28 06:28:00,60.4,59.0,29.73,WNW,293,0.0,0.0,95,0.00,,,0.00,VWS V12.07,2013-06-28 10:28:00,
2013-06-28 06:40:00,59.9,58.8,29.73,WNW,293,0.0,0.0,96,0.00,,,0.00,VWS V12.07,2013-06-28 10:40:00,
2013-06-28 06:58:00,59.9,58.8,29.73,WNW,293,0.0,0.0,96,0.00,,,0.00,VWS V12.07,2013-06-28 10:58:00,
2013-06-28 07:10:00,60.1,59.2,29.73,WNW,293,0.0,0.0,97,0.00,,,0.00,VWS V12.07,2013-06-28 11:10:00,
2013-06-28 07:28:00,60.5,59.7,29.73,WNW,293,0.0,0.0,97,0.01,,,0.01,VWS V12.07,2013-06-28 11:28:00,
2013-06-28 07:40:00,62.4,61.5,29.72,WNW,293,0.0,0.0,97,0.01,,,0.01,VWS V12.07,2013-06-28 11:40:00,
2013-06-28 07:58:00,63.2,61.8,29.71,WNW,293,0.0,0.0,95,0.01,,,0.01,VWS V12.07,2013-06-28 11:58:00,
2013-06-28 08:10:00,63.9,62.1,29.71,NW,316,0.0,0.0,94,0.01,,,0.01,VWS V12.07,2013-06-28 12:10:00,
2013-06-28 08:28:00,64.5,62.7,29.70,NW,316,0.0,0.0,94,0.01,,,0.01,VWS V12.07,2013-06-28 12:28:00,
2013-06-28 08:40:00,68.4,62.7,29.69,NW,306,2.0,10.0,82,0.00,,,0.01,VWS V12.07,2013-06-28 12:40:00,
2013-06-28 08:58:00,70.1,62.9,29.68,West,261,1.0,7.0,78,0.00,,,0.01,VWS V12.07,2013-06-28 12:58:00,
2013-06-28 09:10:00,71.5,63.2,29.68,SW,227,0.0,12.0,75,0.00,,,0.01,VWS V12.07,2013-06-28 13:10:00,
2013-06-28 09:28:00,72.0,62.9,29.68,WNW,292,7.0,11.0,73,0.00,,,0.01,VWS V12.07,2013-06-28 13:28:00,
2013-06-28 09:40:00,72.3,62.8,29.69,WSW,256,6.0,15.0,72,0.00,,,0.01,VWS V12.07,2013-06-28 13:40:00,
2013-06-28 09:58:00,72.7,62.4,29.68,SW,233,12.0,23.0,70,0.00,,,0.01,VWS V12.07,2013-06-28 13:58:00,
2013-06-28 10:10:00,73.0,62.2,29.67,West,279,5.0,16.0,69,0.00,,,0.01,VWS V12.07,2013-06-28 14:10:00,
2013-06-28 10:28:00,73.2,62.0,29.67,West,275,13.0,19.0,68,0.00,,,0.01,VWS V12.07,2013-06-28 14:28:00,
2013-06-28 10:40:00,73.9,62.3,29.67,West,265,6.0,16.0,67,0.00,,,0.01,VWS V12.07,2013-06-28 14:40:00,
2013-06-28 10:58:00,74.2,61.7,29.67,West,281,5.0,16.0,65,0.00,,,0.01,VWS V12.07,2013-06-28 14:58:00,
2013-06-28 11:10:00,74.0,61.9,29.67,WNW,297,4.0,20.0,66,0.00,,,0.01,VWS V12.07,2013-06-28 15:10:00,
2013-06-28 11:28:00,74.6,62.1,29.67,WNW,288,10.0,27.0,65,0.00,,,0.01,VWS V12.07,2013-06-28 15:28:00,
2013-06-28 11:40:00,74.7,60.8,29.67,WSW,257,13.0,25.0,62,0.00,,,0.01,VWS V12.07,2013-06-28 15:40:00,
2013-06-28 11:58:00,75.3,60.9,29.67,West,265,10.0,19.0,61,0.00,,,0.01,VWS V12.07,2013-06-28 15:58:00,
2013-06-28 12:10:00,75.8,61.9,29.67,WNW,287,6.0,17.0,62,0.00,,,0.01,VWS V12.07,2013-06-28 16:10:00,
2013-06-28 12:28:00,75.6,61.2,29.66,WNW,301,16.0,20.0,61,0.00,,,0.01,VWS V12.07,2013-06-28 16:28:00,
2013-06-28 12:40:00,76.8,61.4,29.66,WSW,238,19.0,19.0,59,0.00,,,0.01,VWS V12.07,2013-06-28 16:40:00,
2013-06-28 12:58:00,76.3,61.4,29.66,WNW,302,2.0,22.0,60,0.00,,,0.01,VWS V12.07,2013-06-28 16:58:00,
2013-06-28 13:10:00,76.7,58.8,29.67,West,271,9.0,22.0,54,0.00,,,0.01,VWS V12.07,2013-06-28 17:10:00,
2013-06-28 13:28:00,76.5,60.2,29.66,NNW,348,5.0,18.0,57,0.00,,,0.01,VWS V12.07,2013-06-28 17:28:00,
2013-06-28 13:40:00,76.1,59.8,29.66,West,271,7.0,19.0,57,0.00,,,0.01,VWS V12.07,2013-06-28 17:40:00,
2013-06-28 13:58:00,75.8,60.5,29.66,West,273,7.0,20.0,59,0.00,,,0.01,VWS V12.07,2013-06-28 17:58:00,
2013-06-28 14:10:00,75.4,61.0,29.66,West,276,12.0,26.0,61,0.00,,,0.01,VWS V12.07,2013-06-28 18:10:00,
2013-06-28 14:28:00,75.8,62.8,29.64,West,271,7.0,21.0,64,0.00,,,0.01,VWS V12.07,2013-06-28 18:28:00,
2013-06-28 14:40:00,72.7,62.8,29.65,SW,229,0.0,14.0,71,0.01,,,0.02,VWS V12.07,2013-06-28 18:40:00,
2013-06-28 14:58:00,70.4,63.6,29.67,NW,321,4.0,10.0,79,0.03,,,0.04,VWS V12.07,2013-06-28 18:58:00,
2013-06-28 15:10:00,70.6,64.1,29.66,WNW,290,4.0,12.0,80,0.03,,,0.04,VWS V12.07,2013-06-28 19:10:00,
2013-06-28 15:28:00,70.9,64.1,29.65,NNW,342,5.0,10.0,79,0.03,,,0.04,VWS V12.07,2013-06-28 19:28:00,
2013-06-28 15:40:00,71.8,64.6,29.63,WNW,299,2.0,10.0,78,0.03,,,0.04,VWS V12.07,2013-06-28 19:40:00,
2013-06-28 15:58:00,73.9,64.7,29.62,WNW,294,0.0,11.0,73,0.02,,,0.04,VWS V12.07,2013-06-28 19:58:00,
2013-06-28 16:10:00,72.5,63.4,29.61,NW,309,3.0,8.0,73,0.00,,,0.04,VWS V12.07,2013-06-28 20:10:00,
2013-06-28 16:28:00,72.0,63.3,29.62,West,261,10.0,10.0,74,0.00,,,0.04,VWS V12.07,2013-06-28 20:28:00,
2013-06-28 16:40:00,69.9,63.1,29.63,NW,312,4.0,13.0,79,0.05,,,0.09,VWS V12.07,2013-06-28 20:40:00,
2013-06-28 16:58:00,67.9,63.6,29.64,WNW,286,1.0,6.0,86,0.06,,,0.10,VWS V12.07,2013-06-28 20:58:00,
2013-06-28 17:10:00,66.4,63.1,29.63,WNW,286,3.0,10.0,89,0.06,,,0.10,VWS V12.07,2013-06-28 21:10:00,
2013-06-28 17:20:00,66.8,63.1,29.63,NW,322,6.0,11.0,88,0.06,,,0.10,VWS V12.07,2013-06-28 21:20:00,
2013-06-28 17:30:00,67.8,64.1,29.61,NW,312,0.0,8.0,88,0.06,,,0.10,VWS V12.07,2013-06-28 21:30:00,
2013-06-28 17:40:00,69.9,64.8,29.61,West,275,11.0,14.0,84,0.06,,,0.10,VWS V12.07,2013-06-28 21:40:00,
2013-06-28 17:50:00,71.1,62.8,29.61,NNW,338,10.0,14.0,75,0.01,,,0.10,VWS V12.07,2013-06-28 21:50:00,
2013-06-28 18:00:00,70.9,62.6,29.60,WNW,300,9.0,14.0,75,0.00,,,0.10,VWS V12.07,2013-06-28 22:00:00,
2013-06-28 18:10:00,70.6,62.3,29.60,West,279,5.0,14.0,75,0.00,,,0.10,VWS V12.07,2013-06-28 22:10:00,
2013-06-28 18:30:00,69.8,62.3,29.60,West,261,7.0,15.0,77,0.00,,,0.10,VWS V12.07,2013-06-28 22:30:00,
2013-06-28 18:50:00,69.4,61.5,29.61,West,281,5.0,10.0,76,0.00,,,0.10,VWS V12.07,2013-06-28 22:50:00,
2013-06-28 19:00:00,69.3,61.8,29.61,West,271,6.0,15.0,77,0.00,,,0.10,VWS V12.07,2013-06-28 23:00:00,
2013-06-28 19:20:00,68.1,61.0,29.60,WNW,284,4.0,15.0,78,0.00,,,0.10,VWS V12.07,2013-06-28 23:20:00,
2013-06-28 19:30:00,67.4,61.0,29.60,West,268,0.0,16.0,80,0.00,,,0.10,VWS V12.07,2013-06-28 23:30:00,
2013-06-28 19:40:00,66.9,60.9,29.60,West,275,4.0,11.0,81,0.00,,,0.10,VWS V12.07,2013-06-28 23:40:00,
2013-06-28 19:50:00,66.6,60.6,29.62,WNW,298,4.0,13.0,81,0.00,,,0.10,VWS V12.07,2013-06-28 23:50:00,
2013-06-28 20:00:00,66.3,60.7,29.62,West,275,5.0,10.0,82,0.00,,,0.10,VWS V12.07,2013-06-29 00:00:00,
2013-06-28 20:20:00,66.0,61.0,29.60,West,269,2.0,7.0,84,0.00,,,0.10,VWS V12.07,2013-06-29 00:20:00,
2013-06-28 20:40:00,65.6,61.0,29.59,WSW,254,6.0,11.0,85,0.00,,,0.10,VWS V12.07,2013-06-29 00:40:00,
2013-06-28 20:50:00,65.6,61.3,29.59,WSW,238,2.0,11.0,86,0.00,,,0.10,VWS V12.07,2013-06-29 00:50:00,
2013-06-28 21:00:00,65.5,61.5,29.59,WSW,238,0.0,5.0,87,0.00,,,0.10,VWS V12.07,2013-06-29 01:00:00,
2013-06-28 21:10:00,65.3,61.3,29.59,WSW,238,0.0,0.0,87,0.00,,,0.10,VWS V12.07,2013-06-29 01:10:00,
2013-06-28 21:20:00,64.8,61.2,29.58,WSW,238,0.0,1.0,88,0.00,,,0.10,VWS V12.07,2013-06-29 01:20:00,
2013-06-28 21:40:00,63.9,60.6,29.58,WSW,238,0.0,0.0,89,0.00,,,0.10,VWS V12.07,2013-06-29 01:40:00,
2013-06-28 21:50:00,63.2,60.2,29.58,WSW,238,0.0,0.0,90,0.00,,,0.10,VWS V12.07,2013-06-29 01:50:00,
2013-06-28 22:10:00,62.1,59.5,29.58,WSW,238,0.0,0.0,91,0.00,,,0.10,VWS V12.07,2013-06-29 02:10:00,
2013-06-28 22:30:00,61.2,59.2,29.60,WSW,238,0.0,2.0,93,0.00,,,0.10,VWS V12.07,2013-06-29 02:30:00,
2013-06-28 22:40:00,60.7,58.7,29.60,WSW,238,0.0,0.0,93,0.00,,,0.10,VWS V12.07,2013-06-29 02:40:00,
2013-06-28 22:50:00,60.1,58.1,29.60,WSW,238,0.0,3.0,93,0.00,,,0.10,VWS V12.07,2013-06-29 02:50:00,
2013-06-28 23:00:00,59.9,57.6,29.60,WSW,238,0.0,2.0,92,0.00,,,0.10,VWS V12.07,2013-06-29 03:00:00,
2013-06-28 23:10:00,59.9,57.6,29.60,WSW,238,0.0,1.0,92,0.00,,,0.10,VWS V12.07,2013-06-29 03:10:00,
2013-06-28 23:20:00,59.8,57.5,29.61,WSW,238,0.0,1.0,92,0.00,,,0.10,VWS V12.07,2013-06-29 03:20:00,
2013-06-28 23:50:00,59.3,57.3,29.62,WSW,238,0.0,1.0,93,0.00,,,0.10,VWS V12.07,2013-06-29 03:50:00,